Location: ?????????
(55.6553°N, 38.9075°E)
Time: 13:28:49
(UTC+00:00)

Lacrosse 4 Rocket - Pass Details

Date: 18 October 2019
Orbit: 544 x 615 km, 68.0° (Epoch: 16 November)

Event Time Altitude Azimuth Distance (km) Brightness Sun altitude
Exits shadow 00:29:23 25° 21° (NNE) 1,146 3.3 -29.6°
Drops below altitude 10° 00:31:16 10° 34° (NE) 1,830 4.7 -29.4°
Sets 00:33:32 0° 40° (NE) 2,723 5.9 -29.1°
